Location: Warszawa
(52.2500°N, 21.0000°E)
Time: 20:09:14
(UTC+02:00)

AO-91 - Pass Details

Date: 28 April 2024
Orbit: 441 x 737 km, 97.6° (Epoch: 20 May)

Event Time Altitude Azimuth Distance (km) Brightness Sun altitude
Rises 21:27:41 0° 27° (NNE) 2,454 ? -12.2°
Reaches altitude 10° 21:30:09 10° 47° (NE) 1,592 ? -12.4°
Maximum altitude 21:32:36 18° 93° (E) 1,185 ? -12.7°
Enters shadow 21:33:04 18° 104° (ESE) 1,207 ? -12.7°
